Wind_Speed
10 9 7 6 5 8 10 10 14 16 15 12 10 10 10 10 10 10 11 11 11 11 10 9 8 8 8 9 10 11 11 11 11 11 11 11 12 13 14 14 14 14 14 14 14 14 14 13 13
10 9 7 5 4 6 6 7 9 12 12 11 10 9 9 9 8 9 9 9 9 8 7 6 6 6 7 7 8 9 9 9 9 9 9 10 10 11 12 12 13 13 13 13 12 12 12 12 12
12 10 8 6 4 2 3 4 5 7 8 8 9 9 8 7 7 6 6 6 6 6 4 4 5 5 6 7 7 7 8 8 8 8 8 9 9 10 10 11 11 12 12 12 12 12 11 10 10
13 11 9 8 6 4 3 3 4 4 4 4 5 6 6 4 4 4 3 4 4 3 2 3 4 5 5 6 6 7 7 7 8 8 9 8 9 9 9 9 10 11 11 11 11 11 11 10 9
14 13 11 10 9 6 5 5 6 6 5 3 2 3 3 2 1 1 1 2 2 2 4 4 4 5 5 5 5 6 7 7 8 8 8 8 8 8 8 9 9 9 10 10 10 11 11 10 10
16 14 14 13 11 9 7 7 7 9 8 5 5 5 5 4 4 3 3 3 3 4 5 6 5 5 5 5 5 5 6 7 8 8 8 8 8 7 7 7 7 8 9 10 10 10 11 10 10
16 15 15 15 13 11 10 10 9 9 8 6 7 8 8 7 7 7 7 7 7 7 7 7 7 7 7 6 6 6 6 7 8 9 8 8 7 7 6 6 6 7 8 9 10 11 11 11 11
14 16 17 16 14 12 11 11 10 9 8 8 8 9 10 9 10 11 10 11 11 10 10 9 9 9 9 8 8 7 7 8 9 9 9 8 7 7 6 5 6 6 7 9 10 11 12 12 12
14 16 17 17 15 13 11 10 9 8 7 7 8 9 10 11 11 11 12 13 13 13 12 12 11 11 11 11 11 10 10 11 11 11 10 9 9 8 7 7 6 7 8 9 10 12 13 13 14
15 16 18 18 17 15 13 11 9 8 8 8 7 8 9 11 11 12 13 13 14 14 15 14 13 13 13 13 14 14 14 14 13 13 12 11 11 10 9 9 8 8 9 10 11 12 13 14 15
18 19 20 20 20 18 16 14 11 9 10 9 8 7 8 10 11 12 13 14 14 15 15 15 15 15 15 16 16 17 16 16 15 15 15 14 13 12 11 10 10 10 10 10 11 12 13 15 16
23 23 24 25 24 22 20 18 15 13 13 12 10 10 11 11 12 13 14 14 15 15 16 16 16 17 17 18 18 18 17 17 17 16 16 16 15 14 13 13 13 12 12 12 12 12 13 15 16
28 28 29 28 27 25 24 23 21 18 18 16 15 15 14 14 15 15 16 17 17 18 18 18 18 19 19 20 20 20 20 20 20 19 18 18 17 17 16 16 15 15 15 15 14 14 15 16 17
32 31 31 31 31 30 29 29 27 25 24 23 21 20 20 19 19 18 19 20 20 21 21 21 21 22 22 23 23 23 23 23 22 22 21 21 20 20 19 19 19 18 18 17 16 16 17 18 18
36 34 34 34 35 35 35 34 33 31 30 29 27 26 25 23 22 22 22 23 23 24 24 24 25 25 25 26 26 27 28 27 26 26 25 24 23 22 22 22 21 21 21 20 19 19 20 20 21
39 38 38 37 38 39 40 39 37 37 35 34 33 31 30 28 27 26 26 26 27 27 27 27 28 29 30 30 31 31 32 32 31 30 29 28 26 25 24 24 24 23 23 23 22 21 22 23 23
41 41 41 40 41 42 44 44 41 41 40 39 38 36 35 34 33 31 31 30 30 30 30 30 31 32 32 33 34 33 35 36 35 33 33 32 30 28 26 26 26 25 25 25 25 24 25 25 25
37 40 41 41 42 45 46 47 45 44 43 43 42 41 40 38 37 36 35 34 32 32 32 33 33 34 35 36 36 37 37 38 37 37 36 35 33 31 29 28 28 27 27 27 27 27 27 28 28
30 32 34 35 38 42 44 45 45 44 43 43 43 43 42 40 39 38 37 36 35 34 34 34 34 35 37 38 38 38 40 40 40 41 40 38 36 34 32 32 31 30 29 29 29 30 30 31 31
25 26 27 28 31 34 36 38 39 40 40 41 40 40 39 39 39 38 38 37 35 35 35 35 36 37 38 38 39 41 42 44 44 44 43 41 39 37 35 34 33 32 31 31 31 31 31 32 34
27 27 28 28 28 30 31 31 32 34 35 37 37 36 36 36 37 37 38 37 35 35 34 34 36 38 38 37 39 41 44 45 45 45 45 45 43 41 39 36 35 34 32 31 31 31 31 33 35
29 29 30 30 29 30 31 32 31 32 34 35 35 35 35 36 37 38 38 38 38 38 36 37 38 39 40 40 41 42 43 42 43 44 44 43 42 41 40 37 35 34 31 30 30 31 33 34 36
28 29 30 30 30 30 31 34 34 33 35 36 37 38 38 39 40 41 41 42 42 42 41 40 41 41 42 42 43 43 43 42 42 42 42 41 40 38 37 34 31 30 29 29 30 31 33 34 36
27 27 28 29 30 31 30 32 34 33 34 37 40 42 43 44 45 46 47 47 48 47 47 46 46 46 45 46 45 45 44 42 39 35 33 33 34 33 32 30 28 28 29 29 30 32 34 35 36
22 23 24 25 26 27 27 29 30 30 32 35 39 43 46 49 50 51 52 52 52 52 51 51 51 51 50 50 48 46 44 40 38 32 30 31 31 30 30 29 28 28 29 30 32 34 35 35 35
17 19 21 23 22 20 21 24 25 26 29 32 35 39 43 47 51 53 55 56 56 56 56 56 55 54 53 52 50 47 42 36 33 31 30 31 30 30 31 31 31 31 32 33 34 35 35 34 33
16 17 19 22 22 21 20 20 22 25 28 31 33 36 39 42 46 49 52 54 55 55 55 55 54 54 54 53 49 44 39 36 34 33 32 31 31 30 32 33 33 34 34 35 34 34 33 32 31
16 16 17 20 22 22 20 19 22 25 27 29 32 35 37 39 42 45 48 51 53 54 54 54 53 53 52 50 47 42 38 36 35 34 34 33 32 33 34 34 34 34 34 33 32 31 30 30 29
17 18 19 20 22 24 24 20 24 26 27 29 32 34 36 39 41 43 44 46 47 48 49 50 50 48 46 45 41 40 36 34 34 35 35 33 33 33 34 33 33 33 33 32 31 30 29 29 28
19 19 20 22 23 24 27 24 26 27 29 31 32 34 36 37 38 39 39 39 39 40 40 41 42 41 39 37 34 33 34 34 34 34 34 34 34 33 33 32 32 32 32 32 31 31 30 30 30
Wind_Direction
160 153 140 122 103 82 78 90 103 105 105 105 102 97 98 105 110 114 115 109 104 101 100 97 89 79 71 69 68 67 64 61 58 52 45 38 33 30 29 30 30 31 32 34 37 41 44 46 46
182 175 166 155 131 94 83 94 98 101 102 107 112 105 100 105 111 117 115 108 103 99 93 85 75 66 58 55 55 55 54 52 49 44 38 33 27 23 21 21 21 22 23 24 26 30 34 38 40
198 194 188 189 190 131 103 112 104 100 101 108 110 106 103 105 109 111 108 99 92 90 80 60 54 47 40 39 41 42 43 40 36 32 27 23 19 16 14 13 13 14 14 16 18 19 22 25 29
209 208 206 209 221 207 186 181 158 134 123 118 112 109 108 110 107 97 90 78 70 60 27 16 23 25 24 25 29 30 28 24 21 20 18 15 13 11 10 8 8 8 8 8 9 10 12 14 16
214 215 216 218 224 219 215 208 192 181 172 173 177 159 152 159 153 123 24 32 32 356 338 347 358 3 5 9 14 16 13 10 8 8 10 11 10 8 8 7 7 7 7 6 3 1 0 1 4
217 219 221 223 225 222 230 233 213 197 190 197 219 226 220 223 229 233 257 276 292 303 313 321 330 335 339 343 349 355 358 358 359 359 1 5 8 8 8 8 8 8 6 3 358 353 352 349 348
221 225 229 232 230 227 239 250 244 223 204 205 223 235 236 234 242 243 246 257 271 283 293 300 305 310 314 316 323 332 340 345 348 350 351 353 357 1 2 4 5 2 359 356 353 348 345 341 337
223 228 233 237 236 230 234 247 257 249 226 220 227 240 245 242 246 251 252 257 265 273 280 284 289 295 298 300 306 312 322 329 333 336 338 338 337 338 339 342 345 346 347 345 344 341 337 334 330
226 231 238 243 242 238 238 246 259 265 252 237 236 246 254 255 254 257 259 262 266 270 273 276 279 284 288 290 296 300 306 313 319 319 320 322 320 318 316 317 322 326 330 334 335 335 335 331 325
230 239 245 248 251 250 249 252 264 287 283 266 254 252 259 263 265 264 266 269 271 272 272 273 276 278 282 286 291 294 297 302 307 308 307 306 306 304 302 301 303 309 314 320 324 326 329 330 327
228 239 248 253 255 257 259 263 270 285 295 285 273 268 268 272 274 274 273 273 273 274 274 274 275 278 280 284 288 291 293 294 297 298 298 296 295 293 292 291 292 295 300 309 316 320 326 329 329
228 236 245 250 255 261 267 272 276 282 287 284 280 277 272 273 276 279 278 277 276 275 275 276 277 280 281 283 286 286 287 288 290 291 291 291 290 288 287 286 286 286 292 302 312 315 323 329 329
230 236 244 251 258 263 268 272 275 277 278 279 280 278 274 273 274 277 277 276 277 277 277 277 279 280 281 281 282 283 283 284 285 285 286 287 287 286 285 284 282 283 288 297 303 309 315 322 325
235 239 247 254 258 262 265 269 272 273 273 274 275 274 273 273 273 273 272 273 275 276 277 277 279 279 278 278 279 280 281 281 280 280 281 282 282 283 283 282 282 283 285 290 294 298 303 311 317
237 239 244 249 254 258 262 263 266 267 269 271 272 272 272 272 273 272 270 271 272 273 274 275 277 277 276 277 279 280 278 277 277 277 278 279 280 280 280 280 280 281 282 284 287 291 296 302 308
238 238 239 242 247 251 256 258 260 263 266 268 269 269 270 271 271 270 268 267 267 269 271 272 274 275 274 275 277 277 277 276 275 276 276 277 277 277 277 277 277 278 279 280 283 288 292 296 300
238 238 238 239 243 247 252 256 256 259 262 264 265 266 267 268 269 267 265 263 263 265 267 270 271 271 272 272 274 276 277 275 274 275 275 276 275 275 275 275 275 276 275 276 281 285 288 291 294
240 240 241 240 242 246 250 254 257 258 260 262 264 265 267 267 266 264 263 262 262 264 266 267 269 269 269 269 270 272 273 271 271 273 274 275 274 273 273 273 273 273 273 276 279 282 284 287 290
247 248 249 248 247 249 251 254 258 260 261 262 263 264 264 263 262 261 261 261 261 263 264 267 267 267 267 267 267 266 265 266 268 269 270 270 271 272 272 271 271 270 271 272 276 279 282 285 287
256 257 257 256 255 256 256 257 258 260 262 262 263 262 262 261 260 260 259 260 261 263 265 267 267 268 270 269 267 264 262 263 264 266 266 266 267 269 269 267 266 266 267 269 272 275 280 283 286
260 261 262 262 261 263 263 262 262 262 263 263 263 262 261 260 259 259 259 261 262 263 265 268 270 270 270 270 269 267 266 264 262 262 262 262 264 265 266 262 261 263 264 267 270 275 280 284 287
263 265 266 267 266 265 267 267 263 262 263 264 263 263 262 260 260 260 262 265 267 268 269 270 270 271 271 271 270 268 266 264 263 261 261 261 262 265 264 263 264 264 264 268 272 277 282 285 287
266 268 269 271 270 269 267 267 265 262 261 261 262 262 262 262 263 263 265 267 269 272 273 274 273 272 271 272 272 270 268 264 262 262 262 260 261 262 263 265 264 264 268 272 276 281 284 287 289
269 270 270 271 272 271 270 269 268 266 263 260 259 261 262 264 265 265 267 269 271 272 274 275 275 275 275 275 273 271 267 263 264 265 262 262 263 263 263 263 265 268 273 275 280 285 287 289 290
273 274 273 272 272 275 276 274 274 274 269 265 263 262 262 263 264 265 267 268 270 271 273 273 274 275 275 275 274 274 271 267 267 264 262 266 266 264 265 266 270 273 276 279 283 286 288 290 290
278 280 282 283 282 281 280 283 286 283 278 274 271 269 268 267 267 266 267 267 268 270 271 272 273 273 274 274 273 275 273 268 263 261 263 266 265 264 266 268 271 275 278 281 284 286 288 289 289
286 285 288 290 292 294 294 293 291 287 285 283 282 280 278 276 273 271 271 270 270 270 270 270 271 272 273 272 273 272 267 264 262 263 262 263 264 267 268 268 272 275 279 282 284 286 287 287 287
296 297 296 296 299 301 301 304 300 296 295 294 293 292 290 287 283 279 276 274 273 271 270 270 270 270 271 271 269 269 265 264 263 260 260 260 264 267 267 266 270 273 276 279 281 283 283 284 284
298 299 299 298 301 303 306 310 305 306 307 306 305 304 302 297 293 289 284 281 277 276 273 271 270 269 270 269 268 266 263 260 258 257 259 259 263 264 264 265 268 271 273 275 277 279 280 281 281
295 296 296 297 300 302 305 311 308 311 312 312 312 311 309 304 300 295 291 287 282 280 275 270 268 268 268 267 263 259 259 258 257 257 259 260 261 261 261 264 267 270 271 273 274 276 276 277 278
Height
5908 5909 5910 5912 5913 5913 5913 5914 5913 5914 5914 5915 5915 5916 5917 5918 5919 5921 5920 5918 5919 5919 5919 5919 5919 5918 5917 5916 5916 5915 5915 5915 5915 5914 5914 5914 5913 5912 5912 5911 5910 5910 5909 5908 5907 5906 5905 5904 5903
5909 5910 5912 5913 5914 5914 5915 5914 5915 5915 5916 5917 5917 5918 5919 5919 5920 5921 5920 5920 5920 5920 5921 5920 5920 5919 5918 5918 5917 5916 5916 5916 5916 5915 5915 5914 5914 5913 5912 5911 5911 5910 5909 5908 5907 5906 5905 5904 5903
5910 5911 5914 5914 5914 5915 5916 5916 5916 5916 5917 5918 5918 5919 5920 5921 5922 5922 5922 5922 5921 5922 5922 5922 5921 5920 5919 5919 5918 5918 5917 5917 5916 5916 5916 5915 5914 5913 5913 5912 5911 5910 5909 5908 5907 5906 5905 5904 5903
5910 5912 5914 5915 5915 5916 5917 5917 5917 5917 5917 5918 5919 5920 5921 5922 5923 5923 5923 5923 5922 5923 5923 5923 5922 5921 5920 5920 5919 5919 5918 5917 5917 5916 5916 5915 5914 5913 5912 5912 5910 5909 5908 5908 5906 5905 5904 5903 5902
5909 5911 5913 5914 5914 5916 5917 5917 5917 5917 5917 5918 5919 5920 5921 5922 5922 5923 5923 5923 5924 5924 5924 5924 5923 5922 5921 5920 5920 5919 5919 5918 5917 5916 5916 5915 5914 5913 5912 5911 5910 5909 5908 5907 5906 5905 5904 5903 5902
5909 5910 5912 5912 5913 5915 5916 5917 5918 5918 5917 5918 5919 5920 5921 5921 5922 5922 5923 5924 5924 5925 5925 5924 5923 5922 5921 5920 5920 5919 5918 5918 5917 5916 5916 5914 5913 5912 5912 5911 5910 5909 5907 5906 5905 5904 5903 5902 5901
5908 5909 5909 5910 5912 5914 5916 5916 5917 5917 5917 5918 5918 5919 5920 5921 5921 5922 5922 5923 5924 5924 5924 5923 5923 5922 5921 5920 5920 5919 5918 5918 5917 5916 5915 5914 5913 5912 5911 5910 5909 5908 5907 5906 5904 5903 5902 5901 5899
5907 5908 5908 5908 5910 5913 5914 5915 5915 5916 5916 5917 5917 5918 5919 5920 5920 5921 5921 5922 5922 5922 5922 5922 5921 5921 5920 5920 5919 5919 5918 5917 5916 5916 5915 5914 5913 5912 5911 5910 5908 5907 5906 5905 5903 5902 5900 5899 5898
5906 5907 5906 5907 5909 5911 5912 5914 5915 5915 5915 5916 5916 5917 5917 5918 5919 5919 5919 5920 5920 5920 5920 5920 5920 5919 5919 5919 5918 5918 5917 5916 5915 5915 5914 5913 5912 5911 5910 5909 5907 5906 5905 5903 5902 5900 5898 5897 5895
5904 5905 5905 5905 5906 5908 5910 5912 5914 5915 5915 5915 5915 5915 5915 5916 5916 5917 5917 5918 5918 5918 5918 5918 5918 5917 5917 5917 5917 5916 5915 5915 5914 5913 5912 5912 5911 5910 5909 5908 5906 5904 5903 5901 5900 5898 5897 5895 5893
5902 5902 5902 5903 5904 5905 5908 5910 5912 5914 5914 5914 5914 5914 5914 5914 5914 5915 5915 5915 5915 5915 5915 5915 5915 5915 5915 5914 5914 5914 5913 5912 5911 5911 5910 5909 5909 5908 5907 5906 5904 5902 5901 5899 5898 5896 5895 5893 5891
5899 5899 5899 5899 5901 5903 5905 5907 5909 5911 5913 5913 5913 5913 5912 5912 5912 5912 5912 5913 5913 5912 5912 5912 5912 5912 5912 5912 5911 5911 5910 5909 5909 5908 5907 5906 5906 5905 5904 5903 5902 5900 5898 5897 5895 5894 5892 5891 5888
5896 5896 5896 5897 5899 5901 5902 5904 5906 5908 5908 5909 5910 5910 5910 5910 5910 5910 5910 5910 5909 5909 5909 5909 5909 5909 5909 5908 5908 5907 5907 5906 5905 5905 5904 5903 5902 5902 5901 5900 5899 5897 5895 5894 5892 5891 5890 5888 5886
5892 5894 5894 5894 5895 5897 5898 5899 5901 5902 5903 5904 5905 5906 5907 5907 5906 5906 5906 5906 5906 5906 5906 5906 5905 5905 5905 5904 5904 5903 5903 5902 5901 5901 5900 5899 5898 5897 5896 5895 5894 5893 5891 5890 5888 5887 5886 5884 5882
5887 5890 5891 5890 5890 5890 5892 5894 5894 5896 5897 5898 5899 5901 5902 5903 5903 5903 5902 5902 5902 5902 5902 5901 5901 5900 5900 5900 5899 5899 5898 5897 5896 5896 5895 5894 5893 5892 5891 5890 5889 5888 5887 5885 5884 5883 5882 5880 5878
5879 5882 5884 5885 5884 5884 5886 5887 5889 5889 5890 5892 5893 5895 5896 5897 5898 5898 5897 5897 5896 5896 5896 5896 5895 5895 5894 5894 5893 5893 5892 5891 5890 5890 5889 5888 5888 5887 5886 5885 5883 5882 5881 5880 5879 5878 5877 5875 5874
5870 5873 5876 5878 5878 5878 5879 5879 5882 5882 5883 5885 5886 5888 5889 5890 5891 5891 5890 5890 5889 5889 5889 5889 5888 5888 5887 5886 5886 5886 5885 5884 5883 5883 5882 5882 5882 5881 5880 5879 5878 5876 5875 5874 5873 5872 5871 5870 5868
5863 5865 5867 5870 5871 5872 5872 5872 5874 5875 5877 5878 5879 5880 5882 5883 5883 5882 5882 5882 5882 5882 5881 5881 5881 5880 5879 5878 5878 5878 5877 5876 5875 5875 5875 5874 5874 5874 5873 5872 5871 5870 5868 5867 5867 5866 5864 5863 5862
5858 5860 5862 5864 5864 5865 5866 5867 5867 5868 5869 5870 5871 5872 5872 5873 5872 5873 5873 5873 5873 5873 5873 5873 5872 5872 5870 5870 5869 5868 5868 5867 5866 5866 5865 5865 5865 5865 5865 5864 5863 5861 5860 5860 5859 5858 5857 5856 5855
5853 5855 5856 5857 5858 5858 5859 5860 5860 5861 5861 5861 5862 5863 5863 5863 5863 5863 5864 5864 5864 5864 5864 5864 5863 5862 5861 5860 5859 5858 5858 5857 5857 5857 5856 5856 5856 5856 5855 5854 5853 5852 5852 5851 5851 5850 5849 5848 5846
5848 5849 5850 5851 5852 5851 5852 5853 5853 5853 5853 5853 5853 5854 5854 5855 5855 5854 5854 5853 5853 5853 5853 5854 5853 5852 5851 5850 5849 5848 5848 5847 5847 5846 5845 5846 5846 5846 5845 5844 5844 5843 5843 5843 5843 5842 5841 5840 5838
5843 5843 5844 5844 5845 5846 5846 5845 5847 5846 5846 5846 5846 5846 5846 5846 5846 5845 5845 5845 5844 5843 5843 5844 5843 5842 5841 5840 5839 5837 5836 5836 5836 5834 5835 5835 5836 5836 5836 5835 5835 5834 5834 5834 5835 5834 5833 5832 5830
5837 5837 5837 5837 5837 5838 5838 5837 5838 5839 5839 5838 5837 5837 5837 5837 5837 5837 5836 5836 5835 5835 5834 5833 5833 5832 5830 5829 5829 5827 5825 5824 5824 5824 5825 5826 5826 5827 5827 5826 5826 5826 5826 5827 5826 5826 5825 5824 5822
5832 5832 5832 5831 5830 5831 5830 5830 5829 5830 5830 5830 5829 5828 5828 5827 5827 5827 5827 5826 5826 5825 5824 5824 5823 5822 5821 5819 5818 5816 5814 5812 5813 5814 5815 5817 5817 5818 5818 5818 5818 5819 5819 5818 5818 5817 5816 5815 5813
5827 5827 5826 5825 5824 5824 5824 5822 5822 5822 5821 5820 5819 5818 5818 5817 5816 5816 5815 5814 5814 5813 5812 5812 5811 5811 5810 5809 5807 5805 5803 5802 5804 5805 5807 5808 5809 5809 5809 5810 5810 5810 5810 5810 5810 5809 5807 5806 5804
5823 5823 5822 5820 5819 5819 5818 5816 5817 5815 5813 5811 5810 5808 5807 5806 5804 5803 5802 5802 5801 5801 5800 5799 5799 5798 5798 5797 5797 5796 5793 5792 5794 5796 5797 5799 5800 5800 5801 5801 5802 5802 5802 5802 5801 5800 5798 5797 5795
5820 5819 5818 5816 5814 5813 5813 5812 5811 5807 5805 5803 5801 5799 5797 5795 5793 5791 5789 5788 5787 5787 5786 5786 5785 5785 5785 5785 5785 5784 5784 5784 5785 5786 5788 5789 5790 5791 5792 5792 5793 5793 5793 5793 5792 5791 5789 5788 5786
5816 5815 5814 5811 5809 5807 5807 5806 5803 5800 5797 5795 5792 5789 5786 5783 5780 5777 5775 5773 5772 5771 5771 5771 5771 5771 5771 5770 5771 5773 5773 5774 5775 5777 5778 5780 5781 5782 5783 5784 5784 5784 5784 5784 5783 5782 5781 5780 5779
5813 5811 5809 5807 5805 5802 5799 5802 5797 5793 5790 5787 5783 5779 5775 5772 5768 5764 5761 5758 5757 5756 5755 5756 5757 5757 5757 5757 5758 5760 5761 5763 5765 5767 5768 5770 5772 5773 5774 5774 5775 5775 5775 5775 5774 5774 5773 5772 5771
5808 5806 5804 5803 5800 5796 5793 5796 5789 5786 5782 5778 5775 5770 5765 5761 5756 5752 5748 5745 5743 5742 5742 5742 5743 5745 5746 5746 5747 5748 5751 5753 5755 5757 5759 5761 5762 5763 5764 5765 5765 5766 5766 5766 5766 5765 5765 5764 5763